CAPE
0 0 0 0 0 0 0 0 0 0 0 0 0 0 0 0 0 0 0 0 0 0 0 0 0 0 0 0 0 0 0 0 0 0 0 0 0 0 0 0 0 0 0 0
0 0 0 0 0 0 0 0 0 0 0 0 0 0 0 0 0 0 0 0 0 0 0 0 0 0 0 0 0 0 0 0 0 0 0 0 0 0 0 0 0 0 0 0
0 0 0 0 0 0 0 0 0 0 0 0 0 0 0 0 0 0 0 0 0 0 0 0 0 0 0 0 0 0 0 0 0 0 0 0 0 0 0 0 0 0 0 0
0 0 0 0 0 0 0 0 0 0 0 0 0 0 0 0 0 0 0 0 0 0 0 0 0 0 0 0 0 0 0 0 0 0 0 0 0 0 0 0 0 0 0 0
0 0 0 0 0 0 0 0 0 0 0 0 0 0 0 0 0 0 0 0 0 0 0 0 0 0 0 0 0 0 0 0 0 0 0 0 0 0 0 0 0 0 0 0
0 0 0 0 0 0 0 0 0 0 0 0 0 0 0 0 0 0 0 0 0 0 0 0 0 0 0 0 0 0 0 0 0 0 0 0 0 0 0 0 0 0 0 0
0 0 0 0 0 0 0 0 0 0 0 0 0 0 0 0 0 0 0 0 0 0 0 0 0 0 0 0 0 0 0 0 0 0 0 0 0 0 0 0 0 0 0 0
0 0 0 0 0 0 0 0 0 0 0 0 0 0 0 0 0 0 0 0 0 0 0 0 0 0 0 0 0 0 0 0 0 0 0 0 0 0 0 0 0 0 0 0
0 0 0 0 0 0 0 0 0 0 0 0 0 0 0 0 0 0 0 0 0 0 0 0 0 0 0 0 0 0 0 0 0 0 0 0 0 0 0 0 0 0 0 0
0 0 0 0 0 0 0 0 0 0 0 0 0 0 0 0 0 0 0 0 0 0 0 0 0 0 0 0 0 0 0 0 0 0 0 0 0 0 0 0 0 0 0 0
0 0 0 0 0 0 0 0 0 0 0 0 0 0 0 0 0 0 0 0 0 0 0 0 0 0 0 0 0 0 0 0 0 0 0 0 0 0 0 0 0 0 0 0
0 0 0 0 0 0 0 0 0 2 0 0 0 0 0 0 0 0 0 0 0 0 0 0 0 0 0 0 0 0 0 0 0 0 0 0 0 0 0 0 0 0 0 0
0 0 0 0 0 0 0 0 0 0 0 0 0 0 0 0 0 0 0 0 0 0 0 0 0 0 0 0 0 0 0 0 0 0 0 0 0 0 0 0 0 0 0 0
0 0 0 0 0 0 0 0 0 0 0 0 0 0 0 0 0 0 0 0 0 0 0 0 0 0 0 0 0 0 0 0 0 0 0 0 0 0 0 0 0 0 0 0
0 0 0 0 0 0 0 0 0 0 0 0 0 0 0 0 0 0 0 0 0 0 0 0 0 0 0 0 0 0 0 0 0 0 0 0 0 0 0 0 0 0 0 0
0 5 0 0 0 0 0 0 0 0 0 0 0 0 0 0 0 0 0 0 0 0 0 0 0 0 0 0 0 0 0 0 0 0 0 0 0 0 0 0 0 0 0 0
0 0 0 0 0 0 0 0 0 0 0 0 0 0 0 0 0 0 0 0 0 0 0 0 0 0 0 0 0 0 0 0 0 0 0 0 0 0 0 0 0 0 0 0
0 0 0 0 0 0 0 0 0 0 0 0 0 0 0 0 0 0 0 0 0 0 0 0 0 0 0 0 0 0 0 0 0 0 0 0 0 0 0 0 0 0 0 0
0 0 0 0 0 0 0 0 0 0 0 0 0 0 0 0 0 0 0 0 0 0 0 0 0 0 0 0 0 0 0 0 0 0 0 0 0 0 0 0 0 0 0 0
0 0 0 0 0 0 0 0 0 0 0 0 0 0 0 0 0 0 0 0 0 0 0 0 0 0 0 0 0 0 0 0 0 0 0 0 0 0 0 0 0 0 0 0
0 0 0 0 0 0 0 0 0 0 0 0 0 0 0 0 0 0 0 0 0 0 0 0 0 0 0 0 0 0 0 0 0 0 0 0 0 0 0 0 0 0 0 0
0 0 0 0 0 0 0 0 0 0 0 0 0 0 0 0 0 0 0 0 0 0 0 0 0 0 0 0 0 0 0 0 0 0 0 0 0 0 0 0 0 0 0 0
0 0 0 0 0 0 0 0 0 0 0 0 0 0 0 0 0 0 0 0 0 0 0 0 0 0 0 0 0 0 0 0 0 0 0 0 0 0 0 0 0 0 0 0
0 0 0 0 0 0 0 0 0 0 0 0 0 0 0 0 0 0 0 0 0 0 0 0 0 0 0 0 0 0 0 0 0 0 0 0 0 0 0 0 0 0 0 0
0 0 0 0 0 0 0 0 0 0 0 0 0 0 0 0 0 0 0 0 0 0 0 0 0 0 0 0 0 0 0 0 0 0 0 0 0 0 0 0 0 0 0 0
0 0 0 0 0 0 0 0 0 0 0 0 0 0 0 0 0 0 0 0 0 0 0 0 0 0 0 0 0 0 0 0 0 0 0 0 0 0 0 0 0 0 0 0
CIN
-0 -0 -0 -0 -0 -0 -0 -0 -0 -0 -0 -0 -0 -0 -0 -0 -0 -0 -0 -0 -0 -0 -0 -0 -0 -0 -0 -0 -0 -0 -0 -0 -0 -0 -0 -0 -0 -0 -0 -0 -0 -0 -0 -0
-0 -0 -0 -0 -0 -0 -0 -0 -0 -0 -0 -0 -0 -0 -0 -0 -0 -0 -0 -0 -0 -0 -0 -0 -0 -0 -0 -0 -0 -0 -0 -0 -0 -0 -0 -0 -0 -0 -0 -0 -0 -0 -0 -0
-0 -0 -0 -0 -0 -0 -0 -0 -0 -0 -0 -0 -0 -0 -0 -0 -0 -0 -0 -0 -0 -0 -0 -0 -0 -0 -0 -0 -0 -0 -0 -0 -0 -0 -0 -0 -0 -0 -0 -0 -0 -0 -0 -0
-0 -0 -0 -0 -0 -0 -0 -0 -0 -0 -0 -0 -0 -0 -0 -0 -0 -0 -0 -0 -0 -0 -0 -0 -0 -0 -0 -0 -0 -0 -0 -0 -0 -0 -0 -0 -0 -0 -0 -0 -0 -0 -0 -0
-0 -0 -0 -0 -0 -0 -0 -0 -0 -0 -0 -0 -0 -0 -0 -0 -0 -0 -0 -0 -0 -0 -0 -0 -0 -0 -0 -0 -0 -0 -0 -0 -0 -0 -0 -0 -0 -0 -0 -0 -0 -0 -0 -0
-0 -0 -0 -0 -0 -0 -0 -0 -0 -0 -0 -0 -0 -0 -0 -0 -0 -0 -0 -0 -0 -0 -0 -0 -0 -0 -0 -0 -0 -0 -0 -0 -0 -0 -0 -0 -0 -0 -0 -0 -0 -0 -0 -0
-0 -0 -0 -0 -0 -0 -0 -0 -0 -0 -0 -0 -0 -0 -0 -0 -0 -0 -0 -0 -0 -0 -0 -0 -0 -0 -0 -0 -0 -0 -0 -0 -0 -0 -0 -0 -0 -0 -0 -0 -0 -0 -0 -0
-0 -0 -0 -0 -0 -0 -0 -0 -0 -0 -0 -0 -0 -0 -0 -0 -0 -0 -0 -0 -0 -0 -0 -0 -0 -0 -0 -0 -0 -0 -0 -0 -0 -0 -0 -0 -0 -0 -0 -0 -0 -0 -0 -0
-0 -0 -0 -0 -0 -0 -0 -0 -0 -0 -0 -0 -0 -0 -0 -0 -0 -0 -0 -0 -0 -0 -0 -0 -0 -0 -0 -0 -0 -0 -0 -0 -0 -0 -0 -0 -0 -0 -0 -0 -0 -0 -0 -0
-0 -0 -0 -0 -0 -0 -0 -0 -0 -0 -0 -0 -0 -0 -0 -0 -0 -0 -0 -0 -0 -0 -0 -0 -0 -0 -0 -0 -0 -0 -0 -0 -0 -0 -0 -0 -0 -0 -0 -0 -0 -0 -0 -0
-0 -0 -0 -0 -0 -0 -0 -0 -0 -0 -0 -0 -0 -0 -0 -0 -0 -0 -0 -0 -0 -0 -0 -0 -0 -0 -0 -0 -0 -0 -0 -0 -0 -0 -0 -0 -0 -0 -0 -0 -0 -0 -0 -0
-0 -0 -0 -0 -0 -0 -0 -0 -0 -6 -0 -0 -0 -0 -0 -0 -0 -0 -0 -0 -0 -0 -0 -0 -0 -0 -0 -0 -0 -0 -0 -0 -0 -0 -0 -0 -0 -0 -0 -0 -0 -0 -0 -0
-0 -0 -0 -1 -0 -0 -0 -0 -0 -0 -0 -0 -1 -0 -0 -0 -0 -0 -0 -0 -0 -0 -0 -0 -0 -0 -0 -0 -0 -0 -0 -0 -0 -0 -0 -0 -0 -0 -0 -0 -0 -0 -0 -0
-0 -0 -0 -0 -0 -0 -0 -0 -0 -0 -0 -0 -0 -0 -0 -0 -0 -0 -0 -0 -0 -0 -0 -0 -0 -0 -0 -0 -0 -0 -0 -0 -0 -0 -0 -0 -0 -0 -0 -0 -0 -0 -0 -0
-0 -0 -0 -0 -0 -0 -0 -0 -0 -0 -0 -0 -0 -0 -0 -0 -0 -0 -0 -0 -0 -0 -0 -0 -0 -0 -0 -0 -0 -0 -0 -0 -0 -0 -0 -0 -0 -0 -0 -0 -0 -0 -0 -0
-0 -2 -0 -0 -0 -0 -0 -0 -0 -0 -0 -0 -0 -0 -0 -0 -0 -0 -0 -0 -0 -0 -0 -0 -0 -0 -0 -0 -0 -0 -0 -0 -0 -0 -0 -0 -0 -0 -0 -0 -0 -0 -0 -0
-0 -0 -0 -0 -0 -0 -0 -0 -0 -0 -0 -0 -0 -0 -0 -0 -0 -0 -0 -0 -0 -0 -0 -0 -0 -0 -0 -0 -0 -0 -0 -0 -0 -0 -0 -0 -0 -0 -0 -0 -0 -0 -0 -0
-0 -0 -0 -0 -0 -0 -0 -0 -0 -0 -0 -0 -0 -0 -0 -0 -0 -0 -0 -0 -0 -0 -0 -0 -0 -0 -0 -0 -0 -0 -0 -0 -0 -0 -0 -0 -0 -0 -0 -0 -0 -0 -0 -0
-0 -0 -0 -0 -0 -0 -0 -0 -0 -0 -0 -0 -0 -0 -0 -0 -0 -0 -0 -0 -0 -0 -0 -0 -0 -0 -0 -0 -0 -0 -0 -0 -0 -0 -0 -0 -0 -0 -0 -0 -0 -0 -0 -0
-0 -0 -0 -0 -0 -0 -0 -0 -0 -0 -0 -0 -0 -0 -0 -0 -0 -0 -0 -0 -0 -0 -0 -0 -0 -0 -0 -0 -0 -0 -0 -0 -0 -0 -0 -0 -0 -0 -0 -0 -0 -0 -0 -0
-0 -0 -0 -0 -0 -0 -0 -0 -0 -0 -0 -0 -0 -0 -0 -0 -0 -0 -0 -0 -0 -0 -0 -0 -0 -0 -0 -0 -0 -0 -0 -0 -0 -0 -0 -0 -0 -0 -0 -0 -0 -0 -0 -0
-0 -0 -0 -0 -0 -0 -0 -0 -0 -0 -0 -0 -0 -0 -0 -0 -0 -0 -0 -0 -0 -0 -0 -0 -0 -0 -0 -0 -0 -0 -0 -0 -0 -0 -0 -0 -0 -0 -0 -0 -0 -0 -0 -0
-0 -0 -0 -0 -0 -0 -0 -0 -0 -0 -0 -0 -0 -0 -0 -0 -0 -0 -0 -0 -0 -0 -0 -0 -0 -0 -0 -0 -0 -0 -0 -0 -0 -0 -0 -0 -0 -0 -0 -0 -0 -0 -0 -0
-0 -0 -0 -0 -0 -0 -0 -0 -0 -0 -0 -0 -0 -0 -0 -0 -0 -0 -0 -0 -0 -0 -0 -0 -0 -0 -0 -0 -0 -0 -0 -0 -0 -0 -0 -0 -0 -0 -0 -0 -0 -0 -0 -0
-0 -0 -0 -0 -0 -0 -0 -0 -0 -0 -0 -0 -0 -0 -0 -0 -0 -0 -0 -0 -0 -0 -0 -0 -0 -0 -0 -0 -0 -0 -0 -0 -0 -0 -0 -0 -0 -0 -0 -0 -0 -0 -0 -0
-0 -0 -0 -0 -0 -0 -0 -0 -0 -0 -0 -0 -0 -0 -0 -0 -0 -0 -0 -0 -0 -0 -0 -0 -0 -0 -0 -0 -0 -0 -0 -0 -0 -0 -0 -0 -0 -0 -0 -0 -0 -0 -0 -0
Wind_Speed
19 23 23 21 20 26 27 30 31 28 27 33 34 32 33 36 29 19 17 16 16 16 17 19 21 21 21 21 21 20 19 19 17 16 16 17 18 19 20 22 23 24 25 26
26 29 24 26 25 24 27 31 32 35 30 26 29 33 29 27 22 16 13 12 12 13 15 18 19 20 21 21 22 22 22 21 20 19 17 16 17 19 21 22 24 25 25 25
27 28 24 23 25 26 27 28 30 29 28 27 30 30 22 20 15 13 12 10 10 12 13 16 18 19 20 21 21 22 22 22 22 21 18 18 18 20 23 25 25 26 26 27
30 28 27 28 28 21 25 22 24 26 25 29 20 30 21 15 15 13 10 9 9 10 12 14 16 17 18 19 19 20 21 22 23 22 22 22 21 22 24 25 26 27 28 29
28 25 21 22 20 17 24 20 19 20 20 24 23 28 25 15 17 12 8 8 9 10 11 13 14 15 17 18 19 20 21 22 22 23 23 23 24 24 25 27 28 30 30 31
22 18 20 20 18 13 13 16 20 21 22 29 23 23 28 19 17 10 8 6 7 8 10 12 13 15 17 18 19 21 22 23 23 24 25 27 28 29 30 31 33 33 34 35
22 22 20 16 17 16 15 18 27 29 27 31 22 24 27 22 20 9 6 5 5 7 9 11 13 15 17 19 20 21 22 24 24 25 27 28 30 31 33 35 36 38 39 39
23 28 17 15 18 20 17 19 24 34 32 31 22 30 26 21 14 6 5 4 5 6 8 10 12 14 16 18 20 21 23 25 27 28 29 31 32 34 36 37 39 41 42 43
25 29 19 17 17 17 21 25 23 28 28 33 29 29 24 18 13 7 6 5 5 6 8 10 13 16 18 20 22 24 25 27 28 30 31 34 36 37 39 40 42 44 45 47
23 30 21 20 19 20 22 17 26 26 35 38 34 34 32 20 13 9 9 8 7 9 11 13 16 18 19 21 23 24 25 27 29 30 32 35 37 37 38 40 42 44 46 48
20 26 26 21 25 25 24 28 26 26 28 36 40 36 25 18 11 10 10 10 11 13 15 16 19 20 20 22 24 26 27 29 32 35 36 38 39 40 42 44 46 47 49 51
20 25 32 30 22 22 23 26 25 33 36 32 37 43 26 19 14 12 13 14 15 16 17 18 20 22 23 25 27 29 32 34 36 38 40 41 42 44 46 48 49 50 53 53
17 27 37 36 31 27 29 26 25 27 31 41 41 43 24 18 14 14 16 18 18 20 21 22 24 24 25 27 30 33 33 36 38 40 41 43 45 48 50 52 52 53 55 56
21 25 32 42 37 27 31 30 27 29 38 37 39 37 28 23 20 18 20 23 23 24 24 25 25 26 28 29 31 34 35 37 39 41 43 46 48 50 51 53 54 56 56 59
24 34 33 34 33 32 34 34 30 34 34 36 37 37 28 22 20 23 26 27 26 25 24 25 26 27 27 28 30 33 36 38 41 43 46 47 48 50 52 54 54 55 58 59
26 37 33 39 35 36 41 36 33 32 31 35 36 44 26 25 28 30 28 24 24 26 27 27 26 27 29 31 33 35 37 40 42 45 46 47 48 49 51 53 55 57 58 58
29 31 34 43 34 36 46 41 37 37 36 35 42 38 28 31 28 26 25 24 25 27 28 27 27 29 30 31 33 36 39 41 43 44 44 46 47 50 52 54 56 57 57 57
29 29 33 41 35 53 40 31 33 33 33 31 34 33 31 29 28 27 24 24 26 28 30 28 30 30 29 30 33 36 38 40 42 43 44 45 47 50 52 54 55 56 55 56
28 31 36 41 44 46 44 33 32 33 37 28 30 30 30 28 28 30 26 26 27 29 31 30 28 28 28 31 33 36 38 39 40 43 43 44 47 51 53 55 56 55 55 54
30 30 35 39 47 54 45 31 25 25 48 27 26 27 27 27 39 38 27 26 28 30 29 26 25 27 29 30 32 36 38 39 41 41 43 45 47 50 53 54 54 52 51 51
35 37 42 44 48 49 35 26 23 41 43 23 23 25 26 32 34 33 25 26 28 28 26 25 26 28 28 28 32 36 37 40 38 41 43 45 47 49 50 51 49 50 49 48
37 37 42 40 47 56 25 24 34 29 23 22 25 28 32 33 32 30 29 31 31 30 26 25 25 26 27 29 32 36 38 37 40 42 45 47 48 48 48 48 47 46 47 48
42 35 40 37 41 27 19 24 22 22 26 31 32 30 30 32 32 31 32 34 32 27 25 23 26 28 28 29 30 36 37 38 41 45 48 48 46 45 44 45 46 46 45 46
33 29 38 35 33 30 26 25 27 29 32 30 28 30 30 31 31 31 34 32 29 26 25 24 26 28 29 27 30 33 36 39 43 47 48 47 46 46 43 41 41 43 45 47
31 26 30 34 33 31 32 31 32 32 31 31 30 32 30 29 31 31 32 30 27 23 23 24 25 27 28 28 32 34 37 40 44 45 46 45 44 43 43 39 41 44 43 43
26 30 34 38 35 35 35 31 30 31 32 31 32 32 30 29 30 29 29 25 21 21 22 24 25 26 27 29 33 35 37 39 42 45 44 43 42 40 40 42 47 42 44 46
Wind_Direction
302 297 294 297 297 304 306 304 304 310 311 307 305 308 311 313 318 319 323 332 340 347 355 358 1 4 7 7 6 1 1 356 354 347 340 341 341 340 340 337 333 330 325 320
297 289 294 300 299 297 300 302 303 306 308 311 311 310 320 325 326 328 334 343 352 358 3 3 5 8 11 12 12 12 13 12 9 9 4 359 351 353 351 346 343 340 337 334
288 297 303 295 296 296 297 298 303 305 312 312 312 312 319 331 346 356 353 359 2 0 360 1 4 5 9 13 13 15 14 11 9 10 9 3 357 351 346 344 345 344 341 338
293 295 292 294 294 293 295 302 304 306 309 308 321 309 320 327 331 335 343 351 357 1 5 7 4 5 5 5 7 10 10 9 6 3 2 360 354 347 342 339 339 339 341 340
293 299 301 295 293 296 301 310 312 314 312 312 310 310 312 315 312 315 327 337 347 353 2 5 10 9 7 5 5 6 5 2 1 359 357 353 350 347 343 340 337 335 333 332
291 305 304 303 309 302 316 314 315 315 314 305 302 301 310 308 305 298 309 323 340 352 357 4 6 7 5 1 0 358 358 356 352 350 349 345 341 338 336 333 331 330 328 326
294 291 301 301 301 306 302 306 304 305 303 302 312 304 305 312 312 284 276 303 330 345 350 354 356 360 357 353 350 350 350 349 346 346 342 338 334 332 329 328 326 324 322 320
288 290 286 290 289 295 287 291 298 301 301 306 307 302 307 317 324 310 295 292 309 325 339 345 348 352 348 347 344 344 344 341 337 336 333 331 330 327 324 322 320 318 317 316
288 290 300 298 298 293 296 287 297 300 305 302 300 304 311 316 317 301 285 276 289 309 323 330 333 335 335 334 333 332 332 332 332 331 329 328 328 327 325 322 320 318 316 314
292 289 296 294 298 296 292 302 295 294 296 295 300 300 298 304 295 285 275 271 280 299 310 316 320 324 326 327 327 327 327 326 326 325 324 324 323 323 322 320 318 317 316 315
286 288 294 294 286 285 289 289 295 298 291 295 299 302 314 299 284 272 269 274 281 291 299 306 312 316 319 321 323 323 323 323 322 322 321 320 320 320 319 318 317 315 314 313
277 291 285 287 298 298 292 288 283 283 289 293 294 292 312 308 292 283 282 284 291 296 301 305 308 311 313 314 317 320 320 320 321 321 319 318 318 319 318 317 317 316 314 314
274 287 284 291 294 295 288 287 286 288 291 283 286 292 313 310 297 290 291 294 297 298 300 303 305 307 309 312 315 317 319 319 321 321 320 319 318 317 317 316 316 316 315 314
285 278 279 282 292 298 288 284 281 278 281 284 281 289 295 296 290 289 296 299 300 300 299 301 303 305 308 312 315 318 318 320 320 320 319 317 317 317 316 316 316 315 315 313
282 281 284 287 293 292 291 288 279 276 279 280 291 288 287 285 283 291 297 299 298 298 300 302 305 307 310 313 316 319 319 320 320 319 318 318 318 318 317 317 317 316 315 313
278 281 283 284 290 288 286 284 282 282 284 284 288 288 292 290 293 294 295 295 296 298 301 303 304 307 309 312 315 317 318 319 320 319 318 319 319 319 319 318 318 317 316 316
276 277 282 282 290 291 286 282 277 280 280 282 283 287 292 294 291 293 295 295 296 299 301 302 304 306 308 311 315 316 318 319 319 319 320 320 320 320 320 320 319 319 318 317
282 281 284 284 289 282 290 298 295 282 287 281 287 291 294 296 296 298 295 296 298 302 303 302 304 306 310 314 316 318 320 320 320 320 321 321 322 321 321 321 320 320 320 318
285 280 283 282 282 288 290 293 293 291 292 284 286 290 294 298 300 300 297 299 300 305 307 306 307 309 312 314 318 320 320 321 321 321 322 323 322 321 322 321 321 320 320 319
284 286 279 283 283 284 293 298 299 298 290 292 287 289 292 296 296 300 297 299 302 308 309 309 310 312 314 316 320 320 320 321 321 322 322 323 323 323 322 322 321 321 321 321
280 281 276 280 282 287 292 298 302 289 296 297 293 294 295 295 299 307 308 304 307 308 309 311 312 312 315 318 320 320 321 320 323 324 324 324 324 323 323 323 323 323 322 322
281 281 282 283 284 286 294 292 287 298 304 300 299 298 297 298 302 302 304 307 307 307 308 310 312 314 317 320 321 320 321 324 324 324 324 324 324 324 325 324 324 324 323 323
280 281 284 281 287 301 288 294 289 297 300 300 298 299 299 300 300 300 304 307 307 305 306 310 311 313 318 321 323 321 323 326 326 326 325 325 326 326 326 325 324 324 325 324
286 286 285 288 290 292 292 290 296 293 296 299 298 300 300 299 302 300 305 306 306 305 306 310 313 315 317 322 325 326 327 328 327 326 327 327 327 327 327 328 327 326 324 323
288 290 287 290 294 297 294 292 294 295 296 296 298 299 298 299 301 302 304 305 304 304 308 312 313 316 318 323 325 328 330 330 329 329 329 329 329 329 328 329 328 323 324 325
285 286 288 291 296 295 296 299 298 295 295 294 295 297 296 297 299 303 305 306 304 304 310 312 314 317 320 324 327 329 332 332 331 331 332 332 331 331 330 328 318 328 325 327